Meteo pe oră la Dzierżoniów

Astăzi, 2 Martie, Marţi

Timp Temperatura Precipitaţii Vânt Presiune Umiditate
00:00 +4°C° 0 mm 1 m/s 752 mmHg 87%
01:00 +4°C° 0 mm 1 m/s 752 mmHg 86%
02:00 +4°C° 0 mm 1 m/s 752 mmHg 85%
03:00 +3°C° 0 mm 1 m/s 751 mmHg 85%
04:00 +3°C° 0 mm 1 m/s 751 mmHg 84%
05:00 +3°C° 0 mm 1 m/s 751 mmHg 83%
06:00 +3°C° 0 mm 1 m/s 751 mmHg 83%
07:00 +3°C° 0 mm 1 m/s 751 mmHg 82%
08:00 +5°C° 0 mm 1 m/s 751 mmHg 75%
09:00 +7°C° 0 mm 1 m/s 751 mmHg 69%
10:00 +9°C° 0 mm 1 m/s 751 mmHg 62%
11:00 +11°C° 0 mm 1 m/s 751 mmHg 58%
12:00 +12°C° 0 mm 1 m/s 751 mmHg 53%
13:00 +13°C° 0 mm 1 m/s 751 mmHg 49%
14:00 +13°C° 0 mm 1 m/s 751 mmHg 51%
15:00 +13°C° 0 mm 1 m/s 750 mmHg 53%
16:00 +13°C° 0 mm 1 m/s 750 mmHg 55%
17:00 +10°C° 0 mm 0 m/s 750 mmHg 60%
18:00 +9°C° 0 mm 0 m/s 750 mmHg 65%
19:00 +7°C° 0 mm 0 m/s 750 mmHg 71%
20:00 +7°C° 0 mm 0 m/s 750 mmHg 72%
21:00 +6°C° 0 mm 0 m/s 750 mmHg 73%
22:00 +7°C° 0 mm 1 m/s 750 mmHg 74%
23:00 +6°C° 0 mm 1 m/s 750 mmHg 75%

Mâine, 3 Martie, Miercuri

Timp Temperatura Precipitaţii Vânt Presiune Umiditate
00:00 +6°C° 0 mm 1 m/s 750 mmHg 75%
01:00 +6°C° 0 mm 1 m/s 750 mmHg 76%
02:00 +5°C° 0 mm 1 m/s 750 mmHg 75%
03:00 +5°C° 0 mm 1 m/s 749 mmHg 75%
04:00 +5°C° 0 mm 1 m/s 749 mmHg 74%
05:00 +4°C° 0 mm 1 m/s 749 mmHg 75%
06:00 +4°C° 0 mm 1 m/s 748 mmHg 74%
07:00 +4°C° 0 mm 1 m/s 748 mmHg 74%
08:00 +6°C° 0 mm 1 m/s 748 mmHg 67%
09:00 +8°C° 0 mm 1 m/s 748 mmHg 61%
10:00 +10°C° 0 mm 1 m/s 748 mmHg 54%
11:00 +11°C° 0 mm 1 m/s 747 mmHg 50%
12:00 +12°C° 0 mm 1 m/s 747 mmHg 46%
13:00 +14°C° 0 mm 1 m/s 747 mmHg 42%
14:00 +13°C° 0 mm 1 m/s 746 mmHg 44%
15:00 +13°C° 0 mm 2 m/s 745 mmHg 46%
16:00 +13°C° 0 mm 2 m/s 744 mmHg 49%
17:00 +10°C° 0 mm 2 m/s 744 mmHg 56%
18:00 +8°C° 0 mm 2 m/s 744 mmHg 63%
19:00 +6°C° 0 mm 2 m/s 744 mmHg 70%
20:00 +6°C° 0 mm 2 m/s 743 mmHg 72%
21:00 +4°C° 0 mm 3 m/s 743 mmHg 74%
22:00 +4°C° 0 mm 3 m/s 743 mmHg 76%
23:00 +4°C° 0 mm 3 m/s 742 mmHg 77%

Poimâine, 4 Martie, Joi

Timp Temperatura Precipitaţii Vânt Presiune Umiditate
00:00 +3°C° 0 mm 3 m/s 742 mmHg 78%
01:00 +3°C° 0 mm 3 m/s 741 mmHg 80%
02:00 +3°C° 0 mm 3 m/s 741 mmHg 81%
03:00 +3°C° 0 mm 3 m/s 740 mmHg 82%
04:00 +3°C° 0 mm 3 m/s 740 mmHg 83%
05:00 +3°C° 0 mm 3 m/s 739 mmHg 84%
06:00 +2°C° 0 mm 3 m/s 739 mmHg 85%
07:00 +2°C° 0 mm 3 m/s 739 mmHg 85%
08:00 +4°C° 0 mm 3 m/s 738 mmHg 80%
09:00 +7°C° 0 mm 3 m/s 738 mmHg 74%
10:00 +8°C° 0 mm 3 m/s 738 mmHg 68%
11:00 +9°C° 0 mm 3 m/s 737 mmHg 67%
12:00 +10°C° 0 mm 3 m/s 737 mmHg 65%
13:00 +11°C° 0 mm 3 m/s 737 mmHg 64%
14:00 +11°C° 0 mm 3 m/s 736 mmHg 65%
15:00 +10°C° 0 mm 3 m/s 735 mmHg 66%
16:00 +10°C° 0 mm 3 m/s 735 mmHg 68%
17:00 +9°C° 0.2 mm 3 m/s 735 mmHg 73%
18:00 +9°C° 0.2 mm 3 m/s 734 mmHg 78%
19:00 +8°C° 0.2 mm 2 m/s 734 mmHg 83%
20:00 +7°C° 0.5 mm 2 m/s 734 mmHg 86%
21:00 +7°C° 0.5 mm 2 m/s 734 mmHg 89%
22:00 +7°C° 0.5 mm 2 m/s 734 mmHg 92%
23:00 +6°C° 0.8 mm 2 m/s 733 mmHg 92%

5 Martie, Vineri

Timp Temperatura Precipitaţii Vânt Presiune Umiditate
00:00 +5°C° 0.8 mm 3 m/s 733 mmHg 93%
01:00 +4°C° 0.8 mm 3 m/s 733 mmHg 94%
02:00 +4°C° 0.7 mm 3 m/s 733 mmHg 94%
03:00 +3°C° 0.7 mm 4 m/s 733 mmHg 94%
04:00 +1°C° 0.7 mm 4 m/s 733 mmHg 94%
05:00 +1°C° 0.1 mm 4 m/s 734 mmHg 94%
06:00 0°C° 0.1 mm 4 m/s 735 mmHg 94%
07:00 0°C° 0.1 mm 4 m/s 735 mmHg 94%
08:00 -1°C° 0.2 mm 4 m/s 736 mmHg 92%
09:00 -1°C° 0.2 mm 4 m/s 736 mmHg 90%
10:00 -2°C° 0.2 mm 4 m/s 737 mmHg 87%
11:00 -1°C° 0.2 mm 4 m/s 738 mmHg 82%
12:00 -1°C° 0.2 mm 5 m/s 738 mmHg 76%
13:00 0°C° 0.2 mm 5 m/s 739 mmHg 71%
14:00 0°C° 0 mm 5 m/s 739 mmHg 68%
15:00 -1°C° 0 mm 5 m/s 739 mmHg 64%
16:00 -1°C° 0 mm 5 m/s 739 mmHg 61%
17:00 -1°C° 0 mm 4 m/s 740 mmHg 65%
18:00 -1°C° 0 mm 3 m/s 740 mmHg 68%
19:00 -2°C° 0 mm 2 m/s 741 mmHg 72%
20:00 -2°C° 0 mm 2 m/s 742 mmHg 73%
21:00 -2°C° 0 mm 2 m/s 742 mmHg 74%
22:00 -2°C° 0 mm 2 m/s 743 mmHg 75%
23:00 -3°C° 0 mm 2 m/s 743 mmHg 76%

6 Martie, Sâmbătă

Timp Temperatura Precipitaţii Vânt Presiune Umiditate
00:00 -3°C° 0 mm 2 m/s 744 mmHg 77%
01:00 -3°C° 0 mm 2 m/s 744 mmHg 79%
02:00 -3°C° 0 mm 2 m/s 744 mmHg 80%
03:00 -4°C° 0 mm 3 m/s 745 mmHg 81%
04:00 -4°C° 0 mm 3 m/s 745 mmHg 82%
05:00 -4°C° 0 mm 3 m/s 745 mmHg 82%
06:00 -4°C° 0 mm 3 m/s 746 mmHg 82%
07:00 -5°C° 0 mm 3 m/s 747 mmHg 81%
08:00 -2°C° 0 mm 3 m/s 747 mmHg 73%
09:00 -1°C° 0 mm 3 m/s 748 mmHg 65%
10:00 0°C° 0 mm 3 m/s 748 mmHg 56%
11:00 0°C° 0.1 mm 3 m/s 748 mmHg 52%
12:00 +1°C° 0.1 mm 3 m/s 748 mmHg 49%
13:00 +1°C° 0.1 mm 3 m/s 749 mmHg 45%
14:00 +1°C° 0.1 mm 3 m/s 749 mmHg 46%
15:00 0°C° 0.1 mm 4 m/s 749 mmHg 48%
16:00 0°C° 0.1 mm 4 m/s 749 mmHg 50%
17:00 -1°C° 0 mm 3 m/s 749 mmHg 55%
18:00 -2°C° 0 mm 2 m/s 749 mmHg 61%
19:00 -3°C° 0 mm 2 m/s 749 mmHg 66%
20:00 -1°C° 0 mm 1 m/s 750 mmHg 66%
21:00 -1°C° 0 mm 1 m/s 750 mmHg 66%
22:00 -1°C° 0 mm 1 m/s 750 mmHg 66%
23:00 -1°C° 0 mm 1 m/s 750 mmHg 65%

7 Martie, Duminică

Timp Temperatura Precipitaţii Vânt Presiune Umiditate
00:00 -1°C° 0 mm 1 m/s 750 mmHg 63%
01:00 -1°C° 0 mm 1 m/s 750 mmHg 62%
02:00 -1°C° 0 mm 1 m/s 750 mmHg 62%
03:00 -3°C° 0 mm 2 m/s 750 mmHg 62%
04:00 -3°C° 0 mm 2 m/s 750 mmHg 62%
05:00 -3°C° 0 mm 2 m/s 749 mmHg 61%
06:00 -3°C° 0 mm 2 m/s 749 mmHg 61%
07:00 -3°C° 0 mm 2 m/s 749 mmHg 61%
08:00 -2°C° 0 mm 3 m/s 749 mmHg 55%
09:00 0°C° 0 mm 3 m/s 749 mmHg 48%
10:00 +1°C° 0 mm 3 m/s 749 mmHg 42%
11:00 +2°C° 0 mm 3 m/s 749 mmHg 41%
12:00 +2°C° 0 mm 3 m/s 748 mmHg 40%
13:00 +3°C° 0 mm 3 m/s 748 mmHg 38%
14:00 +3°C° 0 mm 3 m/s 747 mmHg 40%
15:00 +3°C° 0 mm 3 m/s 747 mmHg 42%
16:00 +3°C° 0 mm 3 m/s 746 mmHg 44%
17:00 +1°C° 0 mm 3 m/s 746 mmHg 50%
18:00 0°C° 0 mm 3 m/s 745 mmHg 55%
19:00 -2°C° 0 mm 3 m/s 745 mmHg 60%
20:00 -2°C° 0 mm 3 m/s 745 mmHg 60%
21:00 -2°C° 0 mm 3 m/s 744 mmHg 60%
22:00 -2°C° 0 mm 3 m/s 744 mmHg 60%
23:00 -2°C° 0 mm 3 m/s 744 mmHg 59%
Arată mai mult

Formular de consimțământ

Meteoprog și furnizorii noștri de servicii pot stoca și accesa date personale, precum cookies, identificatori de dispozitiv sau alte tehnologii similare pe dispozitivul dumneavoastră și procesa astfel de date pentru a personaliza conținutul și reclamele, dar și pentru a oferi caracteristici de social media și pentru a analiza traficul.

  • Stocarea și/sau accesarea informațiilor pe dispozitivul dumneavoastră

    Cookies, identificatori de dispozitiv sau alte informații pot fi stocate sau accesate pe dispozitiv în scopurile indicate mai sus.

  • Reclame și conținut personalizat, evaluarea reclamelor și a conținutului, informații despre audiențe și dezvoltarea produselor

    Reclamele și conținutul pot fi personalizate pe baza unui profil. Pot fi adăugate date suplimentare pentru a personaliza mai bine reclamele și conținutul. Performanța reclamelor și conținutului poate fi măsurată. Pot fi obținute informații despre utilizatorii care au văzut reclamele și conținutul. Aceste date pot fi utilizate pentru a dezvolta sau îmbunătăți experiența utilizatorilor, sistemele și software-ul.

Dând clic pe ‘Sunt de acord’, permiteți utilizarea cookie-urilor menționate, a identificatorilor de dispozitiv, balizelor web sau altor tehnologii similare. Setările pot fi modificate din browser-ul dispozitivului dumneavoastră.

În anumite scopuri, interesele legitime pot prima asupra consimțământului. Puteți citi mai multe informații în acest sens în Politica privind Confidențialitatea Datelor și Cookie.